Time,TemperatureF,DewpointF,PressureIn,WindDirection,WindDirectionDegrees,WindSpeedMPH,WindSpeedGustMPH,Humidity,HourlyPrecipIn,Conditions,Clouds,dailyrainin,SoftwareType,DateUTC
2013-05-03 00:00:00,57.2,42.8,30.28,East,88,1.2,-999.9,59,-99.99,,,-99.99,,2013-05-03 04:00:00,
2013-05-03 00:12:00,57.2,44.6,30.29,ENE,59,2.3,-999.9,63,-99.99,,,-99.99,,2013-05-03 04:12:00,
2013-05-03 00:14:00,57.2,44.6,30.29,ENE,59,2.3,-999.9,63,-99.99,,,-99.99,,2013-05-03 04:14:00,
2013-05-03 00:20:00,57.2,44.6,30.29,ENE,59,2.3,-999.9,63,-99.99,,,-99.99,,2013-05-03 04:20:00,
2013-05-03 00:32:00,55.4,42.8,30.29,ENE,57,6.9,-999.9,63,-99.99,,,-99.99,,2013-05-03 04:32:00,
2013-05-03 00:38:00,55.4,42.8,30.29,ENE,57,6.9,-999.9,63,-99.99,,,-99.99,,2013-05-03 04:38:00,
2013-05-03 00:42:00,55.4,44.6,30.30,ENE,66,4.6,-999.9,67,-99.99,,,-99.99,,2013-05-03 04:42:00,
2013-05-03 00:48:00,55.4,44.6,30.30,ENE,66,4.6,-999.9,67,-99.99,,,-99.99,,2013-05-03 04:48:00,
2013-05-03 00:54:00,55.4,46.4,30.30,ENE,75,9.2,-999.9,72,-99.99,,,-99.99,,2013-05-03 04:54:00,
2013-05-03 01:00:00,55.4,46.4,30.30,ENE,75,9.2,-999.9,72,-99.99,,,-99.99,,2013-05-03 05:00:00,
2013-05-03 01:06:00,55.4,46.4,30.30,ENE,75,9.2,-999.9,72,-99.99,,,-99.99,,2013-05-03 05:06:00,
2013-05-03 01:10:00,55.4,46.4,30.30,ENE,75,9.2,-999.9,72,-99.99,,,-99.99,,2013-05-03 05:10:00,
2013-05-03 01:22:00,55.4,44.6,30.30,ESE,108,3.5,-999.9,67,-99.99,,,-99.99,,2013-05-03 05:22:00,
2013-05-03 01:28:00,55.4,44.6,30.30,ESE,108,3.5,-999.9,67,-99.99,,,-99.99,,2013-05-03 05:28:00,
2013-05-03 01:42:00,55.4,44.6,30.30,East,100,5.8,-999.9,67,-99.99,,,-99.99,,2013-05-03 05:42:00,
2013-05-03 01:48:00,55.4,44.6,30.30,East,100,5.8,-999.9,67,-99.99,,,-99.99,,2013-05-03 05:48:00,
2013-05-03 01:54:00,55.4,44.6,30.31,East,90,1.2,-999.9,67,-99.99,,,-99.99,,2013-05-03 05:54:00,
2013-05-03 02:00:00,55.4,44.6,30.31,East,90,1.2,-999.9,67,-99.99,,,-99.99,,2013-05-03 06:00:00,
2013-05-03 02:12:00,55.4,44.6,30.31,East,89,6.9,-999.9,67,-99.99,,,-99.99,,2013-05-03 06:12:00,
2013-05-03 02:18:00,55.4,44.6,30.31,East,89,6.9,-999.9,67,-99.99,,,-99.99,,2013-05-03 06:18:00,
2013-05-03 02:24:00,55.4,44.6,30.31,East,91,4.6,-999.9,67,-99.99,,,-99.99,,2013-05-03 06:24:00,
2013-05-03 02:30:00,55.4,44.6,30.31,East,91,4.6,-999.9,67,-99.99,,,-99.99,,2013-05-03 06:30:00,
2013-05-03 02:36:00,53.6,42.8,30.31,East,84,4.6,-999.9,67,-99.99,,,-99.99,,2013-05-03 06:36:00,
2013-05-03 02:42:00,53.6,42.8,30.31,East,93,1.2,-999.9,67,-99.99,,,-99.99,,2013-05-03 06:42:00,
2013-05-03 02:48:00,53.6,42.8,30.31,East,93,1.2,-999.9,67,-99.99,,,-99.99,,2013-05-03 06:48:00,
2013-05-03 03:02:00,53.6,42.8,30.32,East,91,6.9,-999.9,67,-99.99,,,-99.99,,2013-05-03 07:02:00,
2013-05-03 03:08:00,53.6,42.8,30.32,East,91,6.9,-999.9,67,-99.99,,,-99.99,,2013-05-03 07:08:00,
2013-05-03 03:14:00,53.6,42.8,30.32,East,86,3.5,-999.9,67,-99.99,,,-99.99,,2013-05-03 07:14:00,
2013-05-03 03:20:00,53.6,42.8,30.32,East,86,3.5,-999.9,67,-99.99,,,-99.99,,2013-05-03 07:20:00,
2013-05-03 03:32:00,55.4,41.0,30.32,East,87,2.3,-999.9,58,-99.99,,,-99.99,,2013-05-03 07:32:00,
2013-05-03 03:38:00,55.4,41.0,30.32,East,87,2.3,-999.9,58,-99.99,,,-99.99,,2013-05-03 07:38:00,
2013-05-03 03:44:00,55.4,39.2,30.32,East,90,6.9,-999.9,54,-99.99,,,-99.99,,2013-05-03 07:44:00,
2013-05-03 03:50:00,55.4,39.2,30.32,East,90,6.9,-999.9,54,-99.99,,,-99.99,,2013-05-03 07:50:00,
2013-05-03 03:56:00,53.6,39.2,30.33,NE,51,10.4,-999.9,58,-99.99,,,-99.99,,2013-05-03 07:56:00,
2013-05-03 04:12:00,53.6,39.2,30.34,ENE,64,6.9,-999.9,58,-99.99,,,-99.99,,2013-05-03 08:12:00,
2013-05-03 04:18:00,53.6,39.2,30.34,ENE,64,6.9,-999.9,58,-99.99,,,-99.99,,2013-05-03 08:18:00,
2013-05-03 04:24:00,53.6,39.2,30.34,East,83,9.2,-999.9,58,-99.99,,,-99.99,,2013-05-03 08:24:00,
2013-05-03 04:30:00,53.6,39.2,30.34,East,83,9.2,-999.9,58,-99.99,,,-99.99,,2013-05-03 08:30:00,
2013-05-03 04:36:00,53.6,37.4,30.34,ENE,72,4.6,-999.9,54,-99.99,,,-99.99,,2013-05-03 08:36:00,
2013-05-03 04:42:00,53.6,37.4,30.34,East,81,3.5,-999.9,54,-99.99,,,-99.99,,2013-05-03 08:42:00,
2013-05-03 04:48:00,53.6,37.4,30.34,East,81,3.5,-999.9,54,-99.99,,,-99.99,,2013-05-03 08:48:00,
2013-05-03 05:22:00,51.8,35.6,30.34,ENE,75,5.8,-999.9,54,-99.99,,,-99.99,,2013-05-03 09:22:00,
2013-05-03 05:28:00,51.8,35.6,30.34,ENE,75,5.8,-999.9,54,-99.99,,,-99.99,,2013-05-03 09:28:00,
2013-05-03 05:52:00,53.6,37.4,30.35,ENE,66,4.6,-999.9,54,-99.99,,,-99.99,,2013-05-03 09:52:00,
2013-05-03 05:58:00,53.6,37.4,30.35,ENE,66,4.6,-999.9,54,-99.99,,,-99.99,,2013-05-03 09:58:00,
2013-05-03 06:12:00,53.6,37.4,30.35,NE,54,8.1,-999.9,54,-99.99,,,-99.99,,2013-05-03 10:12:00,
2013-05-03 06:18:00,53.6,37.4,30.35,NE,54,8.1,-999.9,54,-99.99,,,-99.99,,2013-05-03 10:18:00,
2013-05-03 06:24:00,53.6,37.4,30.35,ENE,59,12.7,-999.9,54,-99.99,,,-99.99,,2013-05-03 10:24:00,
2013-05-03 06:30:00,53.6,37.4,30.35,ENE,59,12.7,-999.9,54,-99.99,,,-99.99,,2013-05-03 10:30:00,
2013-05-03 06:36:00,53.6,37.4,30.35,East,84,8.1,-999.9,54,-99.99,,,-99.99,,2013-05-03 10:36:00,
2013-05-03 06:42:00,53.6,39.2,30.36,ENE,68,9.2,-999.9,58,-99.99,,,-99.99,,2013-05-03 10:42:00,
2013-05-03 06:48:00,53.6,39.2,30.36,ENE,68,9.2,-999.9,58,-99.99,,,-99.99,,2013-05-03 10:48:00,
2013-05-03 06:54:00,53.6,37.4,30.36,East,85,3.5,-999.9,54,-99.99,,,-99.99,,2013-05-03 10:54:00,
2013-05-03 07:00:00,53.6,37.4,30.36,East,85,3.5,-999.9,54,-99.99,,,-99.99,,2013-05-03 11:00:00,
2013-05-03 07:06:00,53.6,37.4,30.36,East,84,6.9,-999.9,54,-99.99,,,-99.99,,2013-05-03 11:06:00,
2013-05-03 07:22:00,53.6,35.6,30.36,ENE,65,6.9,-999.9,51,-99.99,,,-99.99,,2013-05-03 11:22:00,
2013-05-03 07:28:00,53.6,35.6,30.36,ENE,65,6.9,-999.9,51,-99.99,,,-99.99,,2013-05-03 11:28:00,
2013-05-03 07:34:00,53.6,35.6,30.35,East,86,11.5,-999.9,51,-99.99,,,-99.99,,2013-05-03 11:34:00,
2013-05-03 07:40:00,53.6,35.6,30.35,East,86,11.5,-999.9,51,-99.99,,,-99.99,,2013-05-03 11:40:00,
2013-05-03 07:46:00,53.6,37.4,30.35,ENE,72,13.8,-999.9,54,-99.99,,,-99.99,,2013-05-03 11:46:00,
2013-05-03 08:02:00,53.6,35.6,30.35,ENE,69,9.2,-999.9,51,-99.99,,,-99.99,,2013-05-03 12:02:00,
2013-05-03 08:08:00,53.6,35.6,30.35,ENE,69,9.2,-999.9,51,-99.99,,,-99.99,,2013-05-03 12:08:00,
2013-05-03 08:14:00,53.6,35.6,30.36,East,90,12.7,-999.9,51,-99.99,,,-99.99,,2013-05-03 12:14:00,
2013-05-03 08:20:00,53.6,35.6,30.36,East,90,12.7,-999.9,51,-99.99,,,-99.99,,2013-05-03 12:20:00,
2013-05-03 08:26:00,53.6,35.6,30.35,ENE,72,8.1,-999.9,51,-99.99,,,-99.99,,2013-05-03 12:26:00,
2013-05-03 08:32:00,53.6,35.6,30.35,East,85,11.5,-999.9,51,-99.99,,,-99.99,,2013-05-03 12:32:00,
2013-05-03 08:38:00,53.6,35.6,30.35,East,85,11.5,-999.9,51,-99.99,,,-99.99,,2013-05-03 12:38:00,
2013-05-03 08:44:00,55.4,37.4,30.36,ENE,64,8.1,-999.9,51,-99.99,,,-99.99,,2013-05-03 12:44:00,
2013-05-03 08:50:00,55.4,37.4,30.36,ENE,64,8.1,-999.9,51,-99.99,,,-99.99,,2013-05-03 12:50:00,
2013-05-03 09:32:00,55.4,37.4,30.35,ENE,62,17.3,-999.9,51,-99.99,,,-99.99,,2013-05-03 13:32:00,
2013-05-03 09:38:00,55.4,37.4,30.35,ENE,62,17.3,-999.9,51,-99.99,,,-99.99,,2013-05-03 13:38:00,
2013-05-03 09:52:00,55.4,37.4,30.35,NE,50,9.2,-999.9,51,-99.99,,,-99.99,,2013-05-03 13:52:00,
2013-05-03 09:58:00,55.4,37.4,30.35,NE,50,9.2,-999.9,51,-99.99,,,-99.99,,2013-05-03 13:58:00,
2013-05-03 10:04:00,55.4,37.4,30.35,ENE,69,11.5,-999.9,51,-99.99,,,-99.99,,2013-05-03 14:04:00,
2013-05-03 10:10:00,55.4,37.4,30.35,ENE,69,11.5,-999.9,51,-99.99,,,-99.99,,2013-05-03 14:10:00,
2013-05-03 10:16:00,55.4,37.4,30.35,NE,52,20.7,-999.9,51,-99.99,,,-99.99,,2013-05-03 14:16:00,
2013-05-03 10:22:00,55.4,35.6,30.36,ENE,58,11.5,-999.9,47,-99.99,,,-99.99,,2013-05-03 14:22:00,
2013-05-03 10:28:00,55.4,35.6,30.36,ENE,58,11.5,-999.9,47,-99.99,,,-99.99,,2013-05-03 14:28:00,
2013-05-03 10:34:00,55.4,35.6,30.36,ENE,59,9.2,-999.9,47,-99.99,,,-99.99,,2013-05-03 14:34:00,
2013-05-03 10:40:00,55.4,35.6,30.36,ENE,59,9.2,-999.9,47,-99.99,,,-99.99,,2013-05-03 14:40:00,
2013-05-03 10:46:00,55.4,35.6,30.36,ENE,72,13.8,-999.9,47,-99.99,,,-99.99,,2013-05-03 14:46:00,
2013-05-03 10:52:00,55.4,37.4,30.36,East,80,6.9,-999.9,51,-99.99,,,-99.99,,2013-05-03 14:52:00,
2013-05-03 10:58:00,55.4,37.4,30.36,East,80,6.9,-999.9,51,-99.99,,,-99.99,,2013-05-03 14:58:00,
2013-05-03 11:04:00,57.2,37.4,30.36,ENE,69,5.8,-999.9,48,-99.99,,,-99.99,,2013-05-03 15:04:00,
2013-05-03 11:10:00,57.2,37.4,30.36,ENE,69,5.8,-999.9,48,-99.99,,,-99.99,,2013-05-03 15:10:00,
2013-05-03 11:16:00,57.2,39.2,30.35,East,79,10.4,-999.9,51,-99.99,,,-99.99,,2013-05-03 15:16:00,
2013-05-03 11:32:00,57.2,37.4,30.35,East,90,11.5,-999.9,48,-99.99,,,-99.99,,2013-05-03 15:32:00,
2013-05-03 11:38:00,57.2,37.4,30.35,East,90,11.5,-999.9,48,-99.99,,,-99.99,,2013-05-03 15:38:00,
2013-05-03 11:44:00,57.2,37.4,30.35,ENE,76,5.8,-999.9,48,-99.99,,,-99.99,,2013-05-03 15:44:00,
2013-05-03 11:50:00,57.2,37.4,30.35,ENE,76,5.8,-999.9,48,-99.99,,,-99.99,,2013-05-03 15:50:00,
2013-05-03 11:56:00,57.2,35.6,30.34,ENE,57,9.2,-999.9,44,-99.99,,,-99.99,,2013-05-03 15:56:00,
2013-05-03 12:02:00,59.0,35.6,30.34,East,97,8.1,-999.9,42,-99.99,,,-99.99,,2013-05-03 16:02:00,
2013-05-03 12:08:00,59.0,35.6,30.34,East,97,8.1,-999.9,42,-99.99,,,-99.99,,2013-05-03 16:08:00,
2013-05-03 12:14:00,59.0,35.6,30.33,East,88,5.8,-999.9,42,-99.99,,,-99.99,,2013-05-03 16:14:00,
2013-05-03 12:20:00,59.0,35.6,30.33,East,88,5.8,-999.9,42,-99.99,,,-99.99,,2013-05-03 16:20:00,
2013-05-03 12:26:00,59.0,35.6,30.33,East,88,5.8,-999.9,42,-99.99,,,-99.99,,2013-05-03 16:26:00,
2013-05-03 12:32:00,59.0,35.6,30.33,East,88,5.8,-999.9,42,-99.99,,,-99.99,,2013-05-03 16:32:00,
2013-05-03 12:38:00,59.0,35.6,30.33,East,88,5.8,-999.9,42,-99.99,,,-99.99,,2013-05-03 16:38:00,
2013-05-03 12:44:00,59.0,35.6,30.33,East,88,5.8,-999.9,42,-99.99,,,-99.99,,2013-05-03 16:44:00,
2013-05-03 12:50:00,59.0,35.6,30.33,East,88,5.8,-999.9,42,-99.99,,,-99.99,,2013-05-03 16:50:00,
2013-05-03 12:56:00,59.0,35.6,30.32,ENE,68,13.8,-999.9,42,-99.99,,,-99.99,,2013-05-03 16:56:00,
2013-05-03 13:12:00,60.8,33.8,30.31,East,84,11.5,-999.9,36,-99.99,,,-99.99,,2013-05-03 17:12:00,
2013-05-03 13:18:00,60.8,33.8,30.31,East,84,11.5,-999.9,36,-99.99,,,-99.99,,2013-05-03 17:18:00,
2013-05-03 13:24:00,60.8,35.6,30.31,East,83,15.0,-999.9,39,-99.99,,,-99.99,,2013-05-03 17:24:00,
2013-05-03 13:30:00,60.8,35.6,30.31,East,83,15.0,-999.9,39,-99.99,,,-99.99,,2013-05-03 17:30:00,
2013-05-03 13:36:00,60.8,33.8,30.31,East,84,6.9,-999.9,36,-99.99,,,-99.99,,2013-05-03 17:36:00,
2013-05-03 13:42:00,62.6,35.6,30.31,ESE,117,10.4,-999.9,37,-99.99,,,-99.99,,2013-05-03 17:42:00,
2013-05-03 13:48:00,62.6,35.6,30.31,ESE,117,10.4,-999.9,37,-99.99,,,-99.99,,2013-05-03 17:48:00,
2013-05-03 14:00:00,62.6,33.8,30.30,East,101,11.5,-999.9,34,-99.99,,,-99.99,,2013-05-03 18:00:00,
2013-05-03 14:06:00,62.6,33.8,30.30,East,101,11.5,-999.9,34,-99.99,,,-99.99,,2013-05-03 18:06:00,
2013-05-03 14:12:00,62.6,35.6,30.30,ENE,78,6.9,-999.9,37,-99.99,,,-99.99,,2013-05-03 18:12:00,
2013-05-03 14:18:00,62.6,35.6,30.30,ENE,78,6.9,-999.9,37,-99.99,,,-99.99,,2013-05-03 18:18:00,
2013-05-03 14:32:00,64.4,35.6,30.29,ESE,111,6.9,-999.9,34,-99.99,,,-99.99,,2013-05-03 18:32:00,
2013-05-03 14:38:00,64.4,35.6,30.29,ESE,111,6.9,-999.9,34,-99.99,,,-99.99,,2013-05-03 18:38:00,
2013-05-03 14:44:00,64.4,33.8,30.29,East,97,8.1,-999.9,32,-99.99,,,-99.99,,2013-05-03 18:44:00,
2013-05-03 14:50:00,64.4,33.8,30.29,East,97,8.1,-999.9,32,-99.99,,,-99.99,,2013-05-03 18:50:00,
2013-05-03 14:56:00,64.4,33.8,30.29,East,81,9.2,-999.9,32,-99.99,,,-99.99,,2013-05-03 18:56:00,
2013-05-03 15:02:00,64.4,33.8,30.28,East,86,4.6,-999.9,32,-99.99,,,-99.99,,2013-05-03 19:02:00,
2013-05-03 15:08:00,64.4,33.8,30.28,East,86,4.6,-999.9,32,-99.99,,,-99.99,,2013-05-03 19:08:00,
2013-05-03 15:14:00,66.2,33.8,30.27,East,95,1.2,-999.9,30,-99.99,,,-99.99,,2013-05-03 19:14:00,
2013-05-03 15:20:00,66.2,33.8,30.27,East,95,1.2,-999.9,30,-99.99,,,-99.99,,2013-05-03 19:20:00,
2013-05-03 15:26:00,64.4,33.8,30.27,ENE,58,8.1,-999.9,32,-99.99,,,-99.99,,2013-05-03 19:26:00,
2013-05-03 15:32:00,64.4,33.8,30.27,ESE,115,5.8,-999.9,32,-99.99,,,-99.99,,2013-05-03 19:32:00,
2013-05-03 15:38:00,64.4,33.8,30.27,ESE,115,5.8,-999.9,32,-99.99,,,-99.99,,2013-05-03 19:38:00,
2013-05-03 15:44:00,62.6,37.4,30.27,SSE,151,9.2,-999.9,39,-99.99,,,-99.99,,2013-05-03 19:44:00,
2013-05-03 15:50:00,62.6,37.4,30.27,SSE,151,9.2,-999.9,39,-99.99,,,-99.99,,2013-05-03 19:50:00,
2013-05-03 15:56:00,62.6,39.2,30.27,SSE,153,4.6,-999.9,42,-99.99,,,-99.99,,2013-05-03 19:56:00,
2013-05-03 16:02:00,64.4,41.0,30.26,SSW,192,8.1,-999.9,42,-99.99,,,-99.99,,2013-05-03 20:02:00,
2013-05-03 16:08:00,64.4,41.0,30.26,SSW,192,8.1,-999.9,42,-99.99,,,-99.99,,2013-05-03 20:08:00,
2013-05-03 16:14:00,60.8,39.2,30.26,South,184,12.7,-999.9,45,-99.99,,,-99.99,,2013-05-03 20:14:00,
2013-05-03 16:20:00,60.8,39.2,30.26,South,184,12.7,-999.9,45,-99.99,,,-99.99,,2013-05-03 20:20:00,
2013-05-03 16:26:00,60.8,42.8,30.26,SW,225,16.1,-999.9,52,-99.99,,,-99.99,,2013-05-03 20:26:00,
2013-05-03 16:42:00,59.0,41.0,30.26,SW,215,16.1,-999.9,51,-99.99,,,-99.99,,2013-05-03 20:42:00,
2013-05-03 16:48:00,59.0,41.0,30.26,SW,215,16.1,-999.9,51,-99.99,,,-99.99,,2013-05-03 20:48:00,
2013-05-03 17:12:00,60.8,41.0,30.26,SSE,168,13.8,-999.9,48,-99.99,,,-99.99,,2013-05-03 21:12:00,
2013-05-03 17:18:00,60.8,41.0,30.26,SSE,168,13.8,-999.9,48,-99.99,,,-99.99,,2013-05-03 21:18:00,
2013-05-03 17:24:00,62.6,42.8,30.26,SSW,193,11.5,-999.9,48,-99.99,,,-99.99,,2013-05-03 21:24:00,
2013-05-03 17:30:00,62.6,42.8,30.26,SSW,193,11.5,-999.9,48,-99.99,,,-99.99,,2013-05-03 21:30:00,
2013-05-03 17:36:00,60.8,42.8,30.26,SSW,205,8.1,-999.9,52,-99.99,,,-99.99,,2013-05-03 21:36:00,
2013-05-03 17:42:00,60.8,42.8,30.26,South,173,6.9,-999.9,52,-99.99,,,-99.99,,2013-05-03 21:42:00,
2013-05-03 17:48:00,60.8,42.8,30.26,South,173,6.9,-999.9,52,-99.99,,,-99.99,,2013-05-03 21:48:00,
2013-05-03 18:02:00,60.8,44.6,30.26,SW,222,13.8,-999.9,55,-99.99,,,-99.99,,2013-05-03 22:02:00,
2013-05-03 18:08:00,60.8,44.6,30.26,SW,222,13.8,-999.9,55,-99.99,,,-99.99,,2013-05-03 22:08:00,
2013-05-03 18:32:00,59.0,42.8,30.26,SSW,200,6.9,-999.9,55,-99.99,,,-99.99,,2013-05-03 22:32:00,
2013-05-03 18:38:00,59.0,42.8,30.26,SSW,200,6.9,-999.9,55,-99.99,,,-99.99,,2013-05-03 22:38:00,
2013-05-03 18:44:00,59.0,44.6,30.26,SSW,205,10.4,-999.9,59,-99.99,,,-99.99,,2013-05-03 22:44:00,
2013-05-03 18:50:00,59.0,44.6,30.26,SSW,205,10.4,-999.9,59,-99.99,,,-99.99,,2013-05-03 22:50:00,
2013-05-03 19:02:00,57.2,42.8,30.26,South,180,11.5,-999.9,59,-99.99,,,-99.99,,2013-05-03 23:02:00,
2013-05-03 19:08:00,57.2,42.8,30.26,South,180,11.5,-999.9,59,-99.99,,,-99.99,,2013-05-03 23:08:00,
2013-05-03 19:22:00,57.2,42.8,30.27,SSW,198,10.4,-999.9,59,-99.99,,,-99.99,,2013-05-03 23:22:00,
2013-05-03 19:28:00,57.2,42.8,30.27,SSW,198,10.4,-999.9,59,-99.99,,,-99.99,,2013-05-03 23:28:00,
2013-05-03 19:42:00,57.2,44.6,30.27,SSW,201,9.2,-999.9,63,-99.99,,,-99.99,,2013-05-03 23:42:00,
2013-05-03 19:48:00,57.2,44.6,30.27,SSW,201,9.2,-999.9,63,-99.99,,,-99.99,,2013-05-03 23:48:00,
2013-05-03 19:54:00,55.4,44.6,30.27,South,177,9.2,-999.9,67,-99.99,,,-99.99,,2013-05-03 23:54:00,
2013-05-03 20:00:00,55.4,44.6,30.27,South,177,9.2,-999.9,67,-99.99,,,-99.99,,2013-05-04 00:00:00,
2013-05-03 20:12:00,55.4,44.6,30.28,South,191,9.2,-999.9,67,-99.99,,,-99.99,,2013-05-04 00:12:00,
2013-05-03 20:18:00,55.4,44.6,30.28,South,191,9.2,-999.9,67,-99.99,,,-99.99,,2013-05-04 00:18:00,
2013-05-03 21:22:00,53.6,44.6,30.30,South,189,5.8,-999.9,72,-99.99,,,-99.99,,2013-05-04 01:22:00,
2013-05-03 21:28:00,53.6,44.6,30.30,South,189,5.8,-999.9,72,-99.99,,,-99.99,,2013-05-04 01:28:00,
2013-05-03 21:34:00,51.8,42.8,30.30,South,177,6.9,-999.9,71,-99.99,,,-99.99,,2013-05-04 01:34:00,
2013-05-03 21:40:00,51.8,42.8,30.30,South,177,6.9,-999.9,71,-99.99,,,-99.99,,2013-05-04 01:40:00,
2013-05-03 21:52:00,51.8,42.8,30.31,South,178,8.1,-999.9,71,-99.99,,,-99.99,,2013-05-04 01:52:00,
2013-05-03 21:58:00,51.8,42.8,30.31,South,178,8.1,-999.9,71,-99.99,,,-99.99,,2013-05-04 01:58:00,
2013-05-03 22:04:00,51.8,44.6,30.30,SSE,161,4.6,-999.9,76,-99.99,,,-99.99,,2013-05-04 02:04:00,
2013-05-03 22:10:00,51.8,44.6,30.30,SSE,161,4.6,-999.9,76,-99.99,,,-99.99,,2013-05-04 02:10:00,
2013-05-03 22:16:00,51.8,44.6,30.31,SSE,152,8.1,-999.9,76,-99.99,,,-99.99,,2013-05-04 02:16:00,
2013-05-03 22:22:00,51.8,44.6,30.30,SSE,148,9.2,-999.9,76,-99.99,,,-99.99,,2013-05-04 02:22:00,
2013-05-03 22:28:00,51.8,44.6,30.30,SSE,148,9.2,-999.9,76,-99.99,,,-99.99,,2013-05-04 02:28:00,
2013-05-03 22:34:00,51.8,44.6,30.30,SSE,158,5.8,-999.9,76,-99.99,,,-99.99,,2013-05-04 02:34:00,
2013-05-03 22:40:00,51.8,44.6,30.30,SSE,158,5.8,-999.9,76,-99.99,,,-99.99,,2013-05-04 02:40:00,
2013-05-03 22:46:00,51.8,44.6,30.30,SE,145,6.9,-999.9,76,-99.99,,,-99.99,,2013-05-04 02:46:00,
2013-05-03 22:52:00,51.8,44.6,30.30,South,181,6.9,-999.9,76,-99.99,,,-99.99,,2013-05-04 02:52:00,
2013-05-03 22:58:00,51.8,44.6,30.30,South,181,6.9,-999.9,76,-99.99,,,-99.99,,2013-05-04 02:58:00,
2013-05-03 23:32:00,50.0,44.6,30.30,SE,146,5.8,-999.9,82,-99.99,,,-99.99,,2013-05-04 03:32:00,
2013-05-03 23:38:00,50.0,44.6,30.30,SE,146,5.8,-999.9,82,-99.99,,,-99.99,,2013-05-04 03:38:00,
2013-05-03 23:44:00,50.0,44.6,30.29,SSE,158,0.0,-999.9,82,-99.99,,,-99.99,,2013-05-04 03:44:00,
2013-05-03 23:50:00,50.0,44.6,30.29,SSE,158,0.0,-999.9,82,-99.99,,,-99.99,,2013-05-04 03:50:00,